This is the latest recevied weather packets stored in our database for station/object KE1THD. If no packets are shown the sender has not sent any weather packets the latest 10 day(s).
| Time | Temp. | Humidity | Pressure | Rain* | Wind** | Luminosity | Snow |
|---|---|---|---|---|---|---|---|
| 1777499648 | 13.89° C | 38% | 1015.8 hPa | 0 mm | - | 464 W/m² | - |
| 1777499345 | 13.89° C | 37% | 1015.7 hPa | 0 mm | - | 448 W/m² | - |
| 1777499043 | 13.89° C | 37% | 1015.8 hPa | 0 mm | - | 102 W/m² | - |
| 1777498739 | 13.89° C | 36% | 1015.8 hPa | 0 mm | - | 117 W/m² | - |
| 1777498435 | 13.89° C | 36% | 1015.9 hPa | 0 mm | - | 103 W/m² | - |
| 1777498132 | 14.44° C | 37% | 1016 hPa | 0 mm | - | 136 W/m² | - |
| 1777497830 | 14.44° C | 37% | 1016 hPa | 0 mm | - | 554 W/m² | - |
| 1777497526 | 15° C | 37% | 1015.7 hPa | 0 mm | - | 563 W/m² | - |
| 1777497222 | 15° C | 36% | 1015.7 hPa | 0 mm | - | 538 W/m² | - |
| 1777496919 | 14.44° C | 38% | 1015.7 hPa | 0 mm | - | 544 W/m² | - |
| 1777496616 | 14.44° C | 36% | 1015.6 hPa | 0 mm | - | 608 W/m² | - |
| 1777496312 | 14.44° C | 37% | 1016.2 hPa | 0 mm | - | 592 W/m² | - |
| 1777496007 | 14.44° C | 37% | 1016 hPa | 0 mm | - | 354 W/m² | - |
| 1777495704 | 15° C | 38% | 1016 hPa | 0 mm | - | 285 W/m² | - |
| 1777495401 | 14.44° C | 40% | 1016 hPa | 0 mm | - | 631 W/m² | - |
| 1777495097 | 14.44° C | 38% | 1016.2 hPa | 0 mm | - | 175 W/m² | - |
| 1777494795 | 14.44° C | 37% | 1016.2 hPa | 0 mm | - | 657 W/m² | - |
| 1777494491 | 14.44° C | 38% | 1016.4 hPa | 0 mm | - | 620 W/m² | - |
| 1777494188 | 13.89° C | 38% | 1016.2 hPa | 0 mm | - | 675 W/m² | - |
| 1777493885 | 13.89° C | 38% | 1016.4 hPa | 0 mm | - | 200 W/m² | - |
| 1777493584 | 13.89° C | 38% | 1016.5 hPa | 0 mm | - | 190 W/m² | - |
| 1777493281 | 13.89° C | 39% | 1016.4 hPa | 0 mm | - | 190 W/m² | - |
| 1777492976 | 13.89° C | 40% | 1016.5 hPa | 0 mm | - | 704 W/m² | - |
| 1777492674 | 13.89° C | 38% | 1016.4 hPa | 0 mm | - | 771 W/m² | - |
| 1777492374 | 13.89° C | 39% | 1016.6 hPa | 0 mm | - | 741 W/m² | - |
* Rain latest hour (hover to see other rain measurements)
** Current wind speed in m/s (hover to see current wind gust speed)